Temperature
17 18 19 19 21 22 22 23 23 23 23 23 22 23 25 25 26 25 21 21 21 21 19 18 17 16 16 15 15 15 15 15 14 14 13 13 13 12 12 12 12 12 13 13 13 13 13 13 12
17 18 19 20 21 22 22 23 23 23 22 21 22 22 24 25 23 21 21 22 22 21 19 18 17 16 16 15 15 15 15 15 14 13 13 13 12 12 12 12 12 13 13 13 13 13 13 12 12
17 18 19 21 21 22 22 23 23 22 22 22 23 23 24 24 21 20 20 22 21 20 19 17 17 16 15 15 15 15 15 15 14 13 13 12 12 12 12 12 12 13 13 13 13 13 13 13 13
16 18 19 21 21 22 22 23 22 22 22 22 22 24 23 21 20 20 21 21 21 20 18 18 16 15 15 15 15 15 15 15 14 13 13 13 12 12 12 12 12 13 13 13 13 13 13 13 13
16 19 20 20 21 22 22 22 20 22 23 23 22 24 24 21 21 21 20 20 20 19 18 18 16 15 15 15 15 15 15 15 15 14 13 13 13 12 13 13 13 13 13 13 13 13 13 13 13
17 19 19 20 21 21 21 20 21 22 22 22 22 23 24 21 20 21 20 20 19 19 18 17 16 15 15 15 15 15 15 15 15 14 13 13 13 13 13 13 13 13 13 14 14 13 13 13 13
18 19 19 20 21 21 21 20 21 22 22 22 22 23 23 20 20 20 20 19 19 18 18 17 16 15 14 14 15 15 15 15 15 14 13 13 13 13 13 13 13 13 13 13 13 13 13 13 12
16 19 19 19 20 20 20 20 20 21 22 21 20 23 23 20 20 19 19 19 19 18 17 17 16 15 15 14 14 14 15 15 15 15 14 13 13 13 13 13 13 13 13 13 13 13 12 12 12
15 17 18 19 19 20 19 20 19 18 20 20 20 20 19 19 19 19 18 18 18 18 18 17 16 16 15 14 14 14 14 15 15 15 14 14 13 13 13 13 13 13 13 12 12 12 12 12 12
15 17 18 19 19 19 18 19 19 19 20 20 20 19 18 18 18 18 18 18 19 19 18 18 17 16 15 14 14 14 14 14 14 14 14 13 13 13 13 13 13 13 12 12 12 12 12 12 12
15 16 18 17 16 17 17 17 17 18 20 20 20 20 18 18 18 17 18 18 18 18 18 18 18 17 16 15 14 14 14 14 13 13 14 14 13 13 13 12 12 12 12 11 11 11 11 12 12
15 15 15 15 15 15 16 17 17 17 18 19 18 17 17 18 18 18 18 18 18 17 18 18 18 17 17 16 15 14 14 14 14 14 14 14 13 13 12 12 12 12 11 11 11 11 11 12 12
14 14 13 13 13 14 14 15 16 16 16 17 17 17 17 18 18 18 18 18 18 18 18 18 18 18 18 17 16 15 14 14 14 14 14 13 13 12 12 12 12 12 11 11 11 11 11 12 12
13 13 13 13 13 13 14 15 15 15 16 16 16 16 17 18 18 18 18 18 18 19 19 19 19 18 18 17 17 16 15 14 13 14 13 13 13 12 12 12 12 11 11 11 11 11 11 11 11
12 13 14 14 13 14 14 14 15 15 16 16 16 16 17 17 17 18 18 18 18 19 19 19 19 18 18 18 17 16 15 14 14 13 13 13 12 12 12 12 12 11 11 11 11 11 11 11 10
12 12 13 14 14 14 13 15 17 16 15 16 16 16 16 16 17 17 18 18 18 18 18 19 19 19 19 18 17 16 15 14 14 13 13 13 13 12 12 12 12 12 11 11 11 11 10 10 10
11 12 13 14 14 14 13 14 16 15 14 15 15 16 16 15 16 16 17 17 18 18 18 19 19 19 19 18 17 15 14 14 14 13 13 13 13 12 12 12 12 11 11 11 11 11 10 10 9
12 12 12 13 13 13 13 14 15 15 14 15 15 15 15 15 15 15 16 16 17 18 18 19 19 19 19 18 16 14 14 14 13 13 13 13 13 12 12 12 11 11 11 11 11 10 10 9 9
11 11 11 12 12 12 12 13 14 15 14 14 14 15 15 15 15 15 15 15 16 17 18 19 19 19 19 18 16 15 14 14 14 13 13 13 12 12 12 11 11 11 11 11 10 10 9 9 8
10 9 10 11 12 11 11 12 14 14 14 14 14 15 15 15 15 16 16 15 16 16 17 18 19 19 19 18 16 14 14 14 14 14 13 13 12 12 11 11 11 11 11 10 10 9 9 8 8
9 9 9 10 11 11 10 12 15 16 15 14 14 14 14 15 15 16 16 16 16 16 17 18 18 18 18 18 16 15 14 14 14 13 13 12 11 11 11 11 11 11 10 10 9 9 8 7 6
9 10 9 9 9 9 10 10 14 15 14 14 15 15 15 15 15 15 16 16 16 16 17 17 18 18 17 17 17 16 15 14 13 13 12 12 11 11 11 11 11 10 10 10 9 8 7 6 5
9 9 9 9 9 8 9 8 12 15 14 14 15 15 16 15 15 15 15 15 15 16 17 17 17 17 17 17 16 15 13 13 13 13 12 11 10 10 10 10 10 10 10 9 8 8 7 6 5
9 8 8 8 7 7 10 10 12 16 15 15 16 16 15 15 15 14 14 14 14 14 16 17 16 16 16 16 15 13 13 13 13 12 11 11 10 10 10 10 10 10 9 8 8 7 6 5 4
8 7 8 8 7 9 12 11 12 15 15 15 15 15 15 15 14 14 14 14 13 14 15 16 16 16 15 15 14 13 13 13 13 13 12 11 11 10 10 10 9 9 8 7 7 6 5 4 4
8 8 8 9 10 11 11 10 13 15 15 14 14 14 14 14 14 13 13 13 13 14 15 16 15 15 15 14 13 12 12 12 12 12 12 11 11 10 10 9 9 8 7 7 6 5 4 4 3
7 7 9 8 8 8 10 12 13 14 14 14 14 14 13 13 13 13 13 12 12 13 14 15 15 15 14 13 12 12 12 12 12 12 11 11 10 10 9 9 8 7 7 6 5 4 3 3 2
8 8 7 6 7 8 11 12 13 14 14 14 14 14 13 12 12 12 12 12 11 11 12 12 12 13 13 12 12 12 12 12 11 11 10 10 9 9 9 8 7 6 6 5 4 3 2 2 2
7 6 6 7 8 8 9 12 14 14 14 14 14 13 12 12 11 11 11 11 10 9 9 10 10 11 12 12 12 11 11 11 11 10 10 9 9 8 8 7 6 5 4 4 3 2 2 2 1
9 8 7 6 7 7 8 11 14 14 13 13 13 12 11 11 10 10 10 9 8 8 8 8 10 11 11 12 12 11 11 10 9 9 9 9 8 8 7 6 5 4 3 3 2 2 1 1 0
Wind_Speed
9 6 4 3 4 6 8 5 4 2 2 4 5 6 5 4 3 1 4 9 8 16 18 20 19 19 17 16 14 12 10 8 8 10 11 10 9 8 7 7 7 7 7 7 8 9 10 9 8
6 4 3 3 6 9 7 6 6 1 5 7 5 6 6 5 1 2 7 9 11 16 17 18 20 19 17 15 14 12 10 9 9 11 11 10 8 7 7 6 6 7 7 8 8 8 8 7 7
3 3 3 5 8 11 6 5 6 1 5 4 3 4 4 1 1 3 6 12 12 15 16 17 20 19 17 15 13 12 10 10 10 10 10 9 8 7 6 6 6 7 7 7 7 7 6 6 5
4 3 5 9 15 13 7 4 2 4 3 3 4 4 2 1 1 3 9 12 13 15 16 18 20 19 18 16 14 12 11 11 10 9 8 7 5 4 4 5 6 6 6 6 6 5 4 4 4
5 6 10 14 18 13 10 6 5 6 5 4 5 4 2 3 2 5 10 12 13 15 15 18 19 19 18 16 15 13 12 11 10 9 7 5 3 1 1 6 7 6 5 4 3 4 4 4 4
6 7 12 17 19 13 11 8 8 8 6 5 4 4 1 4 4 7 11 10 12 14 14 16 18 18 18 16 15 14 12 11 10 9 7 4 2 3 1 6 7 5 3 2 3 5 5 5 5
9 10 17 18 17 15 11 8 10 10 8 5 3 4 3 4 4 7 10 10 11 13 13 14 16 17 17 16 15 14 13 11 10 9 6 4 5 6 5 7 6 3 1 2 4 5 5 6 7
7 7 14 17 18 16 9 7 7 8 8 2 3 5 2 4 4 7 9 10 10 11 12 12 14 15 15 15 15 14 13 11 10 8 6 6 6 6 7 6 6 4 4 5 6 7 8 9 9
6 10 16 17 14 11 8 8 6 3 6 4 4 1 4 3 5 8 9 10 10 11 12 12 13 13 13 13 14 14 13 12 11 9 8 6 5 4 5 6 6 5 5 6 7 8 8 8 9
9 13 17 11 10 8 7 6 5 5 9 9 7 4 3 2 4 8 10 12 13 14 14 13 13 13 13 11 13 12 11 12 11 9 9 7 5 4 3 6 4 5 7 8 9 8 6 3 4
9 11 11 9 9 8 9 9 7 9 13 13 9 6 3 3 4 7 10 11 12 13 14 14 14 13 13 10 11 9 9 10 10 9 8 7 6 5 5 5 5 6 6 5 6 4 5 5 4
8 10 8 7 7 9 13 13 15 17 19 14 11 12 13 13 11 9 9 11 10 12 14 15 15 14 14 12 11 10 9 9 9 10 10 8 6 5 5 4 4 4 5 5 4 3 4 4 4
12 7 8 9 10 11 13 17 17 20 20 19 18 18 19 18 17 13 11 10 11 13 14 15 16 16 15 14 11 10 10 10 11 10 10 10 7 6 5 5 5 5 5 4 3 3 4 4 4
5 8 8 9 11 12 16 20 20 21 18 19 20 21 21 21 19 17 14 13 13 14 14 14 17 17 17 15 13 12 11 11 11 11 12 11 8 7 6 6 6 5 5 5 4 4 3 3 4
4 7 11 13 14 10 12 18 23 24 21 22 22 22 22 22 21 20 18 16 14 14 13 13 15 17 17 17 16 12 12 13 11 12 13 12 10 10 8 7 6 6 6 6 4 4 3 3 3
4 6 8 6 6 7 9 17 13 11 15 19 20 20 20 20 21 21 20 18 16 14 13 12 12 16 18 16 15 12 13 13 12 13 13 13 12 13 10 7 7 7 6 5 4 3 3 3 4
7 8 10 8 7 7 11 15 10 6 9 13 15 15 16 16 18 18 18 18 16 15 14 12 13 16 17 17 14 14 13 13 12 12 12 13 14 15 11 8 8 8 6 5 4 4 4 4 5
7 8 8 9 4 8 16 20 17 16 17 19 18 18 17 17 17 16 16 15 15 14 14 13 13 15 16 14 12 11 12 11 10 10 11 15 14 15 13 9 9 8 6 5 4 5 5 5 5
6 9 12 11 10 13 20 26 24 22 23 24 24 23 23 23 21 19 17 16 14 13 13 13 13 14 15 13 13 13 12 10 9 9 13 14 15 15 13 9 8 7 6 6 5 4 4 5 6
14 15 17 15 13 13 22 31 27 26 28 26 26 25 25 25 24 23 20 17 16 15 14 13 13 15 17 15 14 10 10 8 8 9 11 13 13 14 12 10 8 8 7 7 6 4 3 4 5
15 17 17 16 16 15 19 24 20 15 17 19 21 22 24 24 25 24 23 22 18 17 14 12 15 17 18 17 12 11 9 7 7 9 9 10 12 11 12 12 9 8 7 7 6 5 3 3 3
12 11 14 14 11 8 7 12 16 11 11 13 15 17 20 21 21 22 22 22 21 18 14 14 15 17 18 19 17 19 14 12 10 10 10 11 11 11 12 12 11 9 8 8 6 5 4 2 2
8 4 8 11 12 13 14 11 18 13 16 14 16 18 19 18 18 19 20 21 20 18 15 15 16 18 19 19 19 19 15 12 12 13 15 12 10 11 12 12 11 9 8 8 7 5 3 1 1
8 5 9 11 9 11 17 16 17 15 15 14 14 16 16 15 15 16 17 17 17 15 14 15 18 18 19 19 19 19 19 19 19 18 16 12 9 9 11 11 10 9 8 7 6 5 3 1 1
9 5 5 5 8 11 8 11 16 15 11 13 14 14 14 14 13 13 14 15 15 16 17 17 19 19 20 19 19 18 20 22 23 21 18 15 12 10 11 10 9 8 8 7 6 4 3 2 2
13 11 8 6 8 10 8 14 14 14 12 14 15 15 15 14 13 13 13 13 15 17 19 19 20 20 20 19 18 17 17 15 15 17 16 14 12 11 12 11 10 10 9 7 5 4 3 2 3
7 11 11 9 13 13 13 16 16 15 16 16 16 14 13 12 12 12 11 12 14 16 19 20 20 20 20 19 18 18 17 15 16 16 14 12 12 12 13 11 10 9 8 6 4 2 2 2 3
11 5 7 7 7 11 15 23 16 16 15 14 13 11 9 10 12 13 11 10 12 14 16 17 18 19 19 19 17 15 16 15 16 15 15 14 14 13 13 11 10 9 7 5 3 2 1 3 4
14 10 10 9 9 9 13 15 8 10 11 11 10 8 8 12 14 14 10 7 9 12 14 16 17 18 18 18 18 18 17 16 15 15 15 15 14 13 12 11 9 7 5 4 2 1 2 4 5
16 17 17 12 14 13 13 18 10 12 11 10 10 10 12 13 14 13 8 5 10 13 15 16 17 17 17 18 18 18 17 16 16 16 15 15 14 12 11 10 8 6 4 3 1 2 3 5 6
Wind_Direction
312 315 292 269 250 237 244 229 233 242 257 301 296 267 257 237 236 333 93 149 141 155 159 160 159 155 152 147 141 138 136 135 140 143 137 130 119 108 98 87 72 61 54 52 50 49 51 56 59
313 303 271 259 247 240 230 216 210 207 325 314 275 243 245 243 318 75 135 151 153 157 161 164 156 156 154 150 146 144 141 138 136 134 130 128 120 116 111 100 82 70 64 63 59 54 49 45 42
274 289 262 239 236 239 232 197 185 333 320 304 286 243 259 276 92 126 138 153 158 161 164 157 157 159 157 154 152 151 147 143 139 135 132 133 132 133 128 116 99 85 78 73 67 59 49 37 27
229 213 222 235 235 235 242 178 161 305 320 314 309 268 223 72 77 97 139 157 161 164 165 157 162 162 160 158 157 156 153 149 144 142 143 140 140 148 155 143 125 110 94 78 64 50 39 21 4
214 223 226 233 238 235 235 250 269 283 298 307 305 282 218 120 106 127 150 161 163 165 166 161 167 165 163 162 161 159 158 156 154 153 155 152 149 169 214 167 147 130 110 80 47 18 11 0 346
198 211 228 233 234 231 238 242 256 264 275 287 274 260 182 113 140 145 154 164 165 165 166 163 168 167 166 166 165 163 162 162 162 164 166 161 101 15 341 163 150 137 119 67 12 360 357 352 355
211 214 231 237 240 236 237 234 247 258 258 258 262 244 163 111 106 148 154 157 162 167 170 168 174 174 170 168 168 168 166 166 168 172 170 130 77 51 84 130 132 126 86 20 8 6 15 35 46
225 220 232 233 238 239 227 221 237 249 252 248 238 241 152 53 116 148 153 157 163 172 177 177 179 182 180 177 172 170 167 164 166 168 151 125 107 88 88 109 89 71 49 36 38 53 67 70 65
205 222 229 227 235 237 209 214 209 238 240 226 219 279 31 53 150 162 166 171 174 182 185 185 185 186 186 183 173 174 170 166 168 167 151 168 183 155 133 86 75 69 62 61 67 74 80 85 78
203 226 233 236 233 224 196 209 215 226 228 222 207 173 76 102 175 197 200 195 191 190 192 191 191 189 189 184 181 186 182 177 184 175 173 185 178 161 139 116 101 96 96 91 84 85 84 43 45
209 232 240 231 231 236 235 238 244 248 242 235 237 243 296 301 250 235 234 226 212 202 195 196 193 191 191 189 189 187 186 184 184 180 176 174 170 166 168 161 145 129 120 103 96 85 58 44 34
218 233 239 241 236 246 252 255 252 247 250 257 266 278 284 280 275 266 256 244 229 217 207 201 195 193 195 194 192 192 189 187 183 181 179 175 170 170 162 154 124 111 105 100 93 71 61 43 28
226 238 240 248 256 262 261 255 258 258 258 263 266 267 266 268 269 268 265 255 236 226 216 208 200 196 194 195 195 195 193 189 185 179 181 179 173 164 148 127 109 105 108 113 95 68 53 34 25
233 244 253 258 259 260 260 261 254 254 254 255 254 255 257 258 260 264 260 252 241 233 224 211 205 201 196 195 195 194 192 189 185 181 181 180 171 154 138 123 114 112 111 99 87 70 55 38 24
241 264 265 255 253 253 261 260 247 252 254 252 251 251 252 254 256 256 256 255 250 241 231 216 209 203 200 199 197 193 190 185 183 181 180 179 166 149 137 130 125 122 118 109 93 78 55 40 21
234 253 259 245 237 232 236 261 263 255 253 253 253 253 252 253 254 254 254 253 252 247 235 220 206 205 202 200 197 193 188 184 182 179 177 171 158 148 139 134 129 129 122 111 95 70 45 26 1
228 245 253 262 243 250 242 266 270 259 254 259 260 260 259 259 257 255 254 252 250 246 238 225 210 207 201 198 196 192 186 183 179 174 167 159 150 145 138 132 133 134 124 112 98 67 34 15 358
235 237 252 256 262 270 263 264 265 263 267 269 268 266 263 261 259 259 257 254 250 245 239 230 215 206 194 189 190 187 181 177 170 164 156 149 146 142 133 131 137 135 127 117 104 84 54 22 350
268 260 264 268 279 288 275 274 272 271 267 265 263 262 262 262 261 257 255 254 249 240 231 224 210 194 180 180 182 179 174 164 154 147 145 143 141 140 135 135 137 137 124 115 104 90 62 32 358
251 261 268 279 276 279 283 281 277 267 261 259 260 260 258 257 256 252 247 244 240 234 225 216 202 186 178 179 180 177 153 140 131 130 132 134 137 139 138 140 137 131 122 110 97 86 71 47 20
243 251 262 271 292 280 286 287 275 261 254 254 254 256 256 253 250 246 239 235 231 227 217 204 192 180 177 173 161 143 126 122 126 133 131 131 133 138 140 137 134 130 122 111 100 89 71 56 43
252 252 257 268 273 277 275 290 286 280 265 256 253 251 250 248 244 242 239 232 224 220 208 197 184 178 174 167 168 168 168 162 161 152 139 132 133 138 136 133 131 125 118 116 109 97 87 54 29
244 244 251 260 266 273 254 261 280 268 261 257 253 254 255 253 249 245 240 235 226 215 197 188 179 176 172 173 175 177 168 154 143 139 135 131 134 136 135 133 130 123 119 118 118 115 107 82 350
228 248 261 255 256 261 253 237 274 271 263 262 257 259 264 267 263 256 248 238 228 209 191 182 178 176 173 174 174 174 161 152 149 147 143 140 139 139 137 134 129 125 124 125 127 128 133 146 230
204 219 254 235 228 249 255 237 257 276 263 254 260 269 278 282 280 270 256 236 217 200 190 182 178 175 174 172 173 169 162 160 158 154 153 150 149 148 145 140 134 129 128 130 136 142 155 187 243
204 210 226 255 256 273 255 247 259 272 262 256 260 269 280 286 287 280 265 240 214 198 190 184 179 174 171 169 167 161 159 159 157 156 154 151 149 145 143 139 134 132 133 137 144 154 174 213 255
201 217 235 265 278 275 259 258 267 258 255 252 255 264 280 293 299 294 274 242 215 198 190 184 177 171 168 164 157 153 154 153 150 147 144 139 136 138 139 138 135 134 136 142 156 169 189 237 267
229 217 207 218 257 263 264 266 264 267 255 251 251 263 285 306 313 309 287 244 211 194 185 179 173 166 161 155 149 147 147 145 145 143 140 137 136 137 139 138 136 137 141 149 160 177 212 268 285
202 214 219 235 244 261 275 272 277 265 257 251 257 271 296 310 314 315 299 244 196 177 170 167 163 157 153 148 143 141 140 141 141 138 135 134 135 139 139 138 138 141 145 151 167 208 257 284 291
221 224 220 235 241 242 260 271 277 258 249 252 266 288 302 307 311 312 295 209 171 165 161 158 154 152 147 142 139 137 137 139 137 134 132 133 134 135 135 135 136 137 141 153 192 256 280 290 293
Height
1522 1522 1523 1523 1520 1516 1513 1509 1507 1508 1506 1507 1507 1505 1501 1499 1500 1505 1504 1502 1504 1507 1508 1510 1511 1513 1515 1516 1517 1517 1517 1517 1518 1519 1521 1522 1522 1523 1523 1522 1521 1521 1520 1520 1521 1521 1522 1522 1522
1521 1522 1524 1522 1517 1515 1510 1506 1507 1507 1508 1507 1506 1505 1503 1500 1502 1503 1501 1502 1504 1506 1509 1510 1511 1513 1515 1516 1517 1518 1518 1518 1518 1520 1521 1522 1523 1523 1523 1523 1522 1521 1520 1520 1521 1521 1522 1522 1522
1519 1521 1523 1518 1514 1510 1507 1503 1504 1507 1507 1506 1504 1503 1502 1501 1502 1502 1502 1502 1504 1506 1509 1510 1511 1513 1515 1516 1517 1518 1518 1518 1519 1520 1521 1522 1523 1524 1524 1524 1523 1522 1521 1521 1521 1521 1522 1522 1522
1519 1521 1520 1515 1510 1504 1503 1503 1506 1506 1505 1505 1504 1501 1501 1502 1502 1502 1501 1502 1504 1506 1508 1510 1511 1513 1515 1516 1517 1518 1518 1518 1519 1520 1521 1523 1524 1525 1525 1525 1524 1524 1523 1522 1522 1522 1522 1522 1522
1517 1517 1514 1510 1505 1501 1503 1505 1507 1505 1504 1503 1503 1500 1500 1501 1500 1501 1502 1503 1504 1506 1508 1509 1511 1513 1515 1516 1517 1518 1518 1518 1519 1520 1521 1523 1524 1525 1525 1525 1525 1525 1524 1524 1523 1523 1523 1523 1523
1515 1512 1509 1505 1500 1500 1503 1505 1506 1504 1503 1503 1502 1500 1499 1500 1500 1501 1502 1503 1505 1506 1508 1509 1511 1513 1515 1516 1517 1518 1518 1518 1519 1520 1521 1523 1523 1524 1525 1525 1526 1525 1525 1525 1525 1524 1525 1525 1524
1511 1506 1502 1499 1497 1498 1501 1503 1503 1501 1501 1501 1502 1500 1499 1501 1500 1500 1501 1503 1504 1506 1508 1509 1511 1513 1514 1516 1517 1518 1518 1518 1519 1520 1521 1522 1523 1524 1525 1525 1526 1526 1525 1526 1526 1526 1526 1526 1525
1507 1504 1500 1498 1497 1496 1499 1501 1501 1501 1499 1501 1501 1499 1498 1501 1499 1500 1501 1502 1503 1505 1507 1509 1511 1512 1514 1515 1516 1517 1518 1518 1519 1520 1521 1522 1523 1524 1525 1525 1525 1525 1526 1526 1526 1526 1526 1526 1525
1506 1504 1497 1494 1496 1494 1498 1499 1499 1500 1499 1499 1499 1499 1499 1498 1499 1500 1500 1501 1502 1504 1506 1508 1509 1511 1513 1515 1515 1516 1517 1518 1518 1519 1520 1521 1523 1524 1525 1525 1525 1526 1526 1526 1526 1526 1525 1525 1524
1503 1498 1492 1492 1495 1495 1497 1497 1498 1497 1496 1496 1497 1498 1497 1497 1498 1499 1500 1501 1501 1503 1504 1506 1508 1509 1511 1513 1514 1515 1516 1516 1518 1519 1520 1521 1522 1524 1524 1525 1525 1526 1526 1526 1525 1525 1524 1524 1523
1498 1494 1492 1496 1498 1497 1497 1497 1498 1496 1493 1493 1494 1496 1496 1496 1497 1498 1499 1500 1501 1502 1503 1504 1505 1507 1508 1510 1512 1513 1514 1515 1516 1518 1518 1520 1521 1523 1524 1525 1525 1525 1525 1525 1525 1524 1523 1523 1522
1497 1495 1497 1496 1497 1497 1496 1495 1495 1494 1491 1492 1493 1493 1493 1493 1494 1495 1495 1497 1498 1499 1500 1501 1502 1504 1505 1507 1509 1510 1512 1513 1514 1515 1517 1518 1520 1522 1524 1524 1525 1525 1525 1524 1524 1523 1522 1521 1520
1496 1495 1496 1497 1497 1496 1496 1494 1493 1489 1489 1490 1490 1489 1489 1489 1490 1491 1492 1492 1494 1495 1496 1498 1499 1500 1502 1503 1505 1507 1509 1510 1512 1513 1515 1517 1519 1521 1522 1523 1523 1524 1524 1523 1522 1521 1520 1519 1517
1495 1495 1495 1494 1494 1493 1492 1489 1489 1482 1485 1485 1484 1484 1484 1484 1485 1486 1487 1488 1489 1491 1493 1494 1495 1497 1498 1499 1501 1503 1505 1507 1509 1510 1513 1515 1517 1519 1520 1521 1522 1522 1522 1522 1521 1519 1518 1516 1515
1496 1494 1491 1489 1490 1488 1489 1482 1479 1477 1479 1478 1478 1478 1478 1478 1479 1480 1481 1483 1485 1487 1488 1489 1491 1492 1494 1495 1497 1500 1501 1503 1506 1508 1511 1513 1515 1517 1518 1519 1520 1520 1520 1520 1519 1517 1516 1514 1512
1494 1492 1488 1483 1485 1484 1488 1473 1469 1472 1473 1472 1472 1471 1471 1472 1473 1474 1475 1477 1479 1481 1482 1484 1485 1487 1489 1490 1493 1495 1498 1500 1502 1505 1508 1510 1513 1515 1516 1517 1518 1518 1518 1518 1517 1516 1514 1512 1510
1492 1487 1483 1482 1482 1481 1480 1470 1467 1469 1469 1468 1467 1467 1466 1466 1466 1467 1468 1470 1471 1474 1476 1478 1480 1481 1483 1485 1487 1491 1494 1496 1499 1501 1504 1507 1510 1512 1514 1515 1516 1516 1516 1516 1515 1514 1513 1511 1508
1483 1485 1484 1481 1479 1480 1475 1467 1465 1466 1466 1464 1463 1462 1461 1460 1459 1460 1461 1462 1463 1466 1468 1471 1473 1475 1476 1478 1481 1486 1489 1491 1494 1497 1500 1503 1506 1509 1511 1512 1514 1514 1514 1514 1513 1512 1510 1509 1507
1487 1486 1484 1481 1481 1480 1470 1461 1459 1459 1458 1457 1455 1455 1454 1452 1453 1453 1454 1455 1456 1458 1460 1463 1466 1468 1469 1471 1474 1478 1481 1485 1489 1492 1496 1499 1502 1505 1508 1510 1511 1512 1512 1512 1511 1510 1508 1506 1505
1489 1489 1487 1483 1481 1480 1467 1454 1451 1449 1447 1447 1446 1445 1444 1443 1444 1444 1445 1447 1448 1450 1453 1456 1458 1460 1462 1465 1468 1472 1475 1479 1484 1488 1492 1496 1499 1502 1505 1507 1509 1510 1510 1510 1509 1508 1506 1504 1503
1488 1488 1485 1484 1480 1476 1471 1445 1433 1430 1433 1436 1436 1435 1434 1433 1432 1433 1435 1437 1439 1442 1445 1448 1451 1453 1455 1459 1462 1465 1469 1473 1478 1483 1488 1492 1496 1499 1502 1505 1506 1507 1508 1507 1507 1506 1504 1503 1501
1485 1483 1484 1484 1485 1476 1472 1455 1424 1426 1429 1429 1429 1426 1423 1422 1422 1423 1424 1427 1430 1433 1437 1440 1443 1446 1449 1452 1455 1459 1463 1468 1474 1479 1484 1488 1493 1497 1500 1502 1504 1505 1505 1505 1504 1503 1502 1501 1500
1482 1484 1484 1483 1481 1477 1467 1468 1426 1421 1422 1421 1421 1418 1415 1414 1415 1415 1416 1418 1422 1425 1428 1433 1436 1439 1443 1446 1451 1455 1461 1465 1470 1475 1480 1485 1490 1494 1497 1500 1501 1502 1503 1502 1502 1501 1500 1499 1498
1483 1486 1484 1481 1482 1474 1451 1454 1422 1408 1408 1411 1412 1411 1409 1409 1409 1409 1409 1411 1414 1417 1420 1425 1429 1433 1437 1441 1445 1451 1455 1460 1465 1470 1476 1481 1486 1490 1494 1497 1499 1500 1500 1499 1499 1498 1497 1496 1494
1483 1486 1479 1473 1471 1455 1438 1438 1416 1403 1406 1407 1407 1406 1405 1405 1404 1403 1403 1403 1405 1408 1412 1418 1422 1427 1431 1436 1441 1446 1452 1458 1463 1467 1473 1478 1483 1487 1491 1494 1496 1497 1497 1496 1495 1494 1493 1492 1491
1476 1477 1472 1463 1447 1434 1433 1429 1407 1400 1403 1404 1404 1403 1402 1400 1399 1397 1397 1397 1398 1400 1405 1411 1416 1421 1425 1431 1436 1442 1449 1455 1460 1465 1470 1476 1480 1485 1489 1491 1493 1494 1494 1493 1492 1491 1490 1489 1487
1472 1473 1466 1465 1454 1449 1429 1410 1400 1398 1399 1399 1398 1398 1397 1396 1394 1392 1390 1391 1392 1394 1399 1405 1410 1415 1421 1426 1432 1438 1446 1452 1458 1463 1468 1473 1479 1483 1486 1489 1490 1491 1491 1490 1489 1488 1487 1485 1483
1466 1465 1468 1468 1454 1436 1414 1402 1392 1387 1390 1391 1392 1392 1392 1392 1390 1387 1385 1385 1387 1389 1394 1400 1406 1411 1417 1422 1428 1435 1443 1449 1456 1461 1467 1472 1477 1481 1484 1486 1487 1488 1487 1487 1486 1485 1483 1482 1479
1464 1466 1463 1455 1447 1436 1415 1393 1381 1384 1384 1386 1388 1388 1389 1388 1386 1383 1381 1381 1382 1385 1390 1396 1402 1409 1414 1419 1426 1433 1441 1448 1454 1460 1466 1471 1475 1479 1481 1483 1484 1484 1484 1483 1482 1481 1479 1477 1474
1449 1448 1451 1451 1438 1431 1419 1392 1381 1382 1382 1384 1385 1385 1385 1384 1382 1379 1377 1378 1379 1382 1387 1393 1399 1406 1412 1418 1425 1432 1440 1446 1453 1459 1465 1470 1474 1477 1479 1480 1481 1481 1481 1480 1478 1477 1474 1472 1469